NKS1 MMMX-KLAX

Flight info

Callsign NKS1
Flight time N/A
Altitude 38000
Route ATURO2A ATURO UT134 ZCL DCT AVISU UT60 AXASA UT41 ASUTA DCT AMMOR OLAAA2
Aircraft A20N/M-SDE2E3FGHIRWXY/LB1

Departure

Time 2026-05-06 02:06
Airport Mexico City Benito Juárez International Airport (MMMX)

Arrival

Time N/A
Airport Los Angeles International Airport (KLAX)
Time Latitude Longitude Altitude Speed Heading
2026-05-06 01:40 19.43345 -99.08430 7304 ft 0 kts 330°
2026-05-06 01:56 19.43335 -99.08424 7304 ft 3 kts 328°
2026-05-06 01:56 19.43318 -99.08412 7304 ft 3 kts 322°
2026-05-06 01:57 19.43303 -99.08399 7304 ft 3 kts 315°
2026-05-06 01:57 19.43289 -99.08383 7304 ft 3 kts 302°
2026-05-06 01:57 19.43281 -99.08364 7304 ft 3 kts 272°
2026-05-06 01:57 19.43282 -99.08351 7304 ft 1 kts 240°
2026-05-06 01:58 19.43282 -99.08350 7304 ft 0 kts 240°
2026-05-06 02:01 19.43270 -99.08373 7304 ft 11 kts 240°
2026-05-06 02:01 19.43215 -99.08473 7303 ft 23 kts 239°
2026-05-06 02:01 19.43134 -99.08616 7303 ft 19 kts 239°
2026-05-06 02:01 19.43072 -99.08717 7303 ft 12 kts 220°
2026-05-06 02:02 19.43043 -99.08724 7303 ft 0 kts 179°
2026-05-06 02:05 19.43018 -99.08724 7303 ft 10 kts 179°
2026-05-06 02:05 19.42959 -99.08694 7303 ft 10 kts 92°
2026-05-06 02:05 19.42992 -99.08627 7303 ft 12 kts 60°
2026-05-06 02:05 19.43136 -99.08368 7303 ft 79 kts 59°
2026-05-06 02:06 19.43539 -99.07657 7306 ft 143 kts 59°
2026-05-06 02:06 19.44135 -99.06592 7369 ft 187 kts 61°
2026-05-06 02:06 19.44748 -99.05336 8132 ft 195 kts 64°
2026-05-06 02:06 19.45418 -99.04066 9064 ft 199 kts 56°
2026-05-06 02:07 19.46210 -99.02832 9318 ft 211 kts 58°
2026-05-06 02:07 19.47029 -99.01442 9619 ft 234 kts 59°
2026-05-06 02:07 19.47909 -98.99895 10115 ft 255 kts 60°
2026-05-06 02:07 19.48854 -98.98213 10383 ft 276 kts 60°
2026-05-06 02:08 19.49874 -98.96390 10501 ft 299 kts 60°
2026-05-06 02:08 19.50976 -98.94420 10602 ft 322 kts 60°
2026-05-06 02:08 19.52151 -98.92322 10801 ft 337 kts 60°
2026-05-06 02:08 19.53421 -98.90208 11243 ft 343 kts 52°
2026-05-06 02:09 19.55026 -98.88323 11777 ft 346 kts 47°
2026-05-06 02:09 19.56670 -98.86440 12349 ft 349 kts 48°
2026-05-06 02:09 19.58315 -98.84539 12926 ft 351 kts 48°
2026-05-06 02:09 19.59966 -98.82626 13534 ft 353 kts 48°
2026-05-06 02:10 19.60360 -98.82171 13671 ft 354 kts 48°
2026-05-06 02:10 19.60686 -98.81793 13785 ft 354 kts 48°
2026-05-06 02:10 19.62337 -98.79888 14304 ft 357 kts 48°
2026-05-06 02:10 19.64021 -98.77941 14824 ft 359 kts 48°
2026-05-06 02:11 19.65717 -98.75980 15337 ft 362 kts 48°
2026-05-06 02:11 19.67426 -98.74001 15852 ft 364 kts 48°
2026-05-06 02:11 19.69271 -98.72155 16362 ft 367 kts 37°
2026-05-06 02:11 19.71467 -98.70759 16869 ft 371 kts 25°
2026-05-06 02:12 19.73931 -98.69907 17395 ft 375 kts 12°
2026-05-06 02:12 19.76536 -98.69616 17913 ft 379 kts
2026-05-06 02:12 19.79181 -98.69449 18415 ft 381 kts
2026-05-06 02:12 19.81842 -98.69276 18840 ft 385 kts
2026-05-06 02:13 19.84528 -98.69098 19264 ft 389 kts
2026-05-06 02:13 19.87230 -98.68914 19681 ft 392 kts
2026-05-06 02:13 19.89971 -98.68725 20114 ft 395 kts
2026-05-06 02:13 19.92738 -98.68559 20539 ft 399 kts
2026-05-06 02:14 19.95513 -98.68832 20977 ft 404 kts 349°
2026-05-06 02:14 19.98212 -98.69710 21411 ft 408 kts 337°
2026-05-06 02:14 20.03105 -98.72996 22300 ft 415 kts 324°
2026-05-06 02:15 20.05449 -98.74809 22750 ft 418 kts 324°
2026-05-06 02:15 20.07810 -98.76635 23189 ft 422 kts 324°
2026-05-06 02:15 20.10198 -98.78484 23580 ft 425 kts 324°
2026-05-06 02:15 20.12596 -98.80339 23943 ft 428 kts 324°
2026-05-06 02:16 20.15011 -98.82203 24320 ft 430 kts 323°
2026-05-06 02:16 20.17439 -98.84082 24680 ft 432 kts 323°
2026-05-06 02:16 20.19871 -98.85981 25037 ft 434 kts 323°
2026-05-06 02:16 20.22277 -98.87931 25399 ft 435 kts 318°
2026-05-06 02:17 20.24397 -98.90226 25752 ft 436 kts 308°
2026-05-06 02:17 20.26135 -98.92874 26100 ft 437 kts 300°
2026-05-06 02:17 20.27714 -98.95652 26457 ft 438 kts 300°
2026-05-06 02:17 20.29304 -98.98433 26789 ft 440 kts 300°
2026-05-06 02:18 20.30900 -99.01219 27127 ft 442 kts 300°
2026-05-06 02:18 20.32489 -99.03982 27448 ft 444 kts 300°
2026-05-06 02:18 20.34125 -99.06831 27776 ft 445 kts 300°
2026-05-06 02:18 20.35732 -99.09639 28100 ft 447 kts 299°
2026-05-06 02:19 20.37360 -99.12485 28436 ft 449 kts 299°
2026-05-06 02:19 20.38962 -99.15291 28557 ft 449 kts 299°
2026-05-06 02:19 20.42204 -99.20978 28581 ft 448 kts 299°
2026-05-06 02:20 20.45938 -99.26299 28577 ft 452 kts 314°
2026-05-06 02:20 20.48314 -99.28504 28577 ft 453 kts 318°
2026-05-06 02:21 20.53138 -99.32825 28571 ft 453 kts 318°
2026-05-06 02:21 20.57950 -99.37180 28568 ft 453 kts 317°
2026-05-06 02:22 20.62761 -99.41531 28559 ft 453 kts 317°
2026-05-06 02:22 20.67590 -99.45897 28990 ft 457 kts 317°
2026-05-06 02:22 20.70020 -99.48096 29339 ft 459 kts 317°
2026-05-06 02:23 20.72455 -99.50300 29668 ft 461 kts 317°
2026-05-06 02:23 20.74905 -99.52515 29986 ft 463 kts 317°
2026-05-06 02:23 20.77369 -99.54742 30267 ft 464 kts 317°
2026-05-06 02:23 20.79837 -99.56976 30552 ft 466 kts 317°
2026-05-06 02:24 20.82318 -99.59223 30879 ft 466 kts 317°
2026-05-06 02:24 20.84777 -99.61448 31274 ft 465 kts 317°
2026-05-06 02:24 20.87220 -99.63664 31676 ft 463 kts 317°
2026-05-06 02:24 20.89662 -99.65888 32098 ft 462 kts 317°
2026-05-06 02:25 20.92111 -99.68117 32520 ft 460 kts 317°
2026-05-06 02:25 20.94549 -99.70332 32945 ft 459 kts 317°
2026-05-06 02:25 20.96978 -99.72536 33382 ft 457 kts 317°
2026-05-06 02:25 20.99394 -99.74730 33814 ft 456 kts 317°
2026-05-06 02:26 21.01807 -99.76925 34173 ft 454 kts 316°
2026-05-06 02:26 21.04037 -99.79285 34499 ft 450 kts 307°
2026-05-06 02:26 21.05908 -99.81955 34815 ft 446 kts 302°
2026-05-06 02:26 21.07680 -99.84685 35133 ft 446 kts 302°
2026-05-06 02:27 21.09451 -99.87409 35430 ft 445 kts 302°
2026-05-06 02:27 21.11215 -99.90125 35727 ft 445 kts 302°
2026-05-06 02:27 21.12980 -99.92847 36019 ft 444 kts 302°
2026-05-06 02:27 21.14744 -99.95559 36311 ft 443 kts 302°
2026-05-06 02:28 21.16505 -99.98267 36598 ft 443 kts 302°
2026-05-06 02:28 21.18258 -100.00968 36870 ft 442 kts 302°
2026-05-06 02:28 21.20011 -100.03673 37133 ft 441 kts 302°
2026-05-06 02:28 21.21758 -100.06367 37393 ft 441 kts 302°
2026-05-06 02:29 21.23518 -100.09079 37498 ft 442 kts 302°
2026-05-06 02:29 21.27034 -100.14505 37511 ft 444 kts 302°
2026-05-06 02:30 21.30552 -100.19942 37511 ft 444 kts 302°
2026-05-06 02:30 21.34068 -100.25374 37511 ft 443 kts 302°
2026-05-06 02:31 21.37582 -100.30812 37513 ft 443 kts 302°
2026-05-06 02:31 21.41090 -100.36251 37514 ft 443 kts 302°
2026-05-06 02:32 21.44600 -100.41700 37517 ft 444 kts 302°
2026-05-06 02:32 21.48111 -100.47154 37524 ft 444 kts 302°
2026-05-06 02:33 21.51597 -100.52572 37525 ft 444 kts 302°
2026-05-06 02:33 21.52783 -100.54412 37530 ft 444 kts 302°
2026-05-06 02:34 21.58611 -100.63474 37540 ft 443 kts 302°
2026-05-06 02:34 21.62106 -100.68923 37546 ft 443 kts 302°
2026-05-06 02:35 21.65601 -100.74374 37552 ft 443 kts 302°
2026-05-06 02:35 21.69080 -100.79823 37549 ft 442 kts 301°
2026-05-06 02:36 21.72562 -100.85277 37556 ft 442 kts 302°
2026-05-06 02:36 21.76053 -100.90726 37560 ft 442 kts 301°
2026-05-06 02:37 21.79524 -100.96168 37570 ft 441 kts 301°
2026-05-06 02:37 21.82997 -101.01610 37570 ft 441 kts 301°
2026-05-06 02:38 21.86466 -101.07048 37582 ft 440 kts 301°
2026-05-06 02:38 21.89927 -101.12477 37582 ft 440 kts 301°
2026-05-06 02:39 21.93352 -101.17881 37588 ft 439 kts 301°
2026-05-06 02:39 21.96821 -101.23347 37590 ft 439 kts 301°
2026-05-06 02:40 22.00263 -101.28769 37594 ft 438 kts 301°
2026-05-06 02:40 22.03711 -101.34187 37596 ft 438 kts 301°
2026-05-06 02:41 22.07143 -101.39559 37604 ft 438 kts 301°
2026-05-06 02:41 22.10590 -101.44965 37609 ft 437 kts 301°
2026-05-06 02:42 22.14026 -101.50375 37610 ft 437 kts 301°
2026-05-06 02:42 22.17455 -101.55787 37612 ft 436 kts 301°
2026-05-06 02:43 22.20322 -101.60312 37619 ft 436 kts 301°
2026-05-06 02:43 22.23722 -101.65679 37617 ft 436 kts 301°
2026-05-06 02:44 22.27139 -101.71076 37620 ft 435 kts 301°
2026-05-06 02:44 22.30555 -101.76469 37617 ft 435 kts 301°
2026-05-06 02:45 22.33963 -101.81865 37621 ft 434 kts 301°
2026-05-06 02:45 22.37370 -101.87257 37623 ft 434 kts 301°
2026-05-06 02:46 22.40770 -101.92648 37627 ft 434 kts 301°
2026-05-06 02:46 22.44168 -101.98042 37626 ft 434 kts 300°
2026-05-06 02:47 22.47563 -102.03439 37631 ft 434 kts 301°
2026-05-06 02:47 22.50955 -102.08836 37634 ft 434 kts 301°
2026-05-06 02:48 22.54325 -102.14195 37640 ft 434 kts 301°
2026-05-06 02:48 22.57710 -102.19593 37651 ft 433 kts 300°
2026-05-06 02:49 22.61090 -102.24996 37657 ft 433 kts 300°
2026-05-06 02:49 22.64473 -102.30393 37656 ft 433 kts 300°
2026-05-06 02:50 22.67850 -102.35794 37660 ft 433 kts 300°
2026-05-06 02:50 22.71234 -102.41201 37719 ft 433 kts 300°
2026-05-06 02:51 22.74609 -102.46611 37789 ft 433 kts 300°
2026-05-06 02:51 22.77978 -102.52016 37860 ft 433 kts 300°
2026-05-06 02:52 22.81352 -102.57423 37935 ft 433 kts 300°
2026-05-06 02:52 22.84716 -102.62827 37983 ft 433 kts 300°
2026-05-06 02:53 22.88076 -102.68243 37970 ft 432 kts 300°
2026-05-06 02:53 22.91389 -102.73677 37979 ft 431 kts 299°
2026-05-06 02:54 22.94621 -102.79155 37963 ft 431 kts 299°
2026-05-06 02:54 22.97821 -102.84599 37896 ft 431 kts 299°
2026-05-06 02:55 23.01079 -102.90101 37833 ft 430 kts 299°
2026-05-06 02:55 23.04300 -102.95520 37781 ft 430 kts 299°
2026-05-06 02:56 23.07541 -103.00972 37711 ft 429 kts 299°
2026-05-06 02:56 23.10763 -103.06427 37703 ft 428 kts 298°
2026-05-06 02:57 23.13975 -103.11877 37703 ft 428 kts 298°
2026-05-06 02:57 23.17189 -103.17318 37709 ft 428 kts 298°
2026-05-06 02:58 23.20409 -103.22759 37715 ft 428 kts 298°
2026-05-06 02:58 23.23617 -103.28202 37717 ft 427 kts 298°
2026-05-06 02:59 23.26814 -103.33654 37726 ft 427 kts 298°
2026-05-06 02:59 23.30017 -103.39101 37728 ft 427 kts 298°
2026-05-06 03:00 23.33218 -103.44545 37734 ft 427 kts 298°
2026-05-06 03:00 23.36413 -103.49997 37733 ft 427 kts 298°
2026-05-06 03:01 23.39602 -103.55452 37740 ft 427 kts 298°
2026-05-06 03:01 23.42765 -103.60864 37736 ft 426 kts 298°
2026-05-06 03:02 23.45946 -103.66308 37737 ft 426 kts 298°
2026-05-06 03:02 23.49127 -103.71753 37739 ft 425 kts 298°
2026-05-06 03:03 23.52302 -103.77196 37737 ft 425 kts 298°
2026-05-06 03:03 23.55471 -103.82627 37741 ft 424 kts 298°
2026-05-06 03:04 23.58629 -103.88054 37735 ft 424 kts 298°
2026-05-06 03:04 23.61788 -103.93485 37730 ft 424 kts 299°
2026-05-06 03:05 23.65677 -103.98400 37726 ft 431 kts 309°
2026-05-06 03:05 23.69816 -104.03059 37720 ft 430 kts 309°
2026-05-06 03:06 23.73976 -104.07759 37714 ft 430 kts 309°
2026-05-06 03:06 23.78125 -104.12469 37715 ft 430 kts 309°
2026-05-06 03:07 23.82274 -104.17179 37709 ft 430 kts 308°
2026-05-06 03:07 23.86421 -104.21891 37711 ft 430 kts 308°
2026-05-06 03:08 23.90573 -104.26603 37736 ft 430 kts 308°
2026-05-06 03:08 23.94730 -104.31319 37792 ft 430 kts 308°
2026-05-06 03:09 23.98881 -104.36032 37847 ft 430 kts 308°
2026-05-06 03:09 24.03030 -104.40750 37894 ft 430 kts 308°
2026-05-06 03:10 24.07174 -104.45476 37939 ft 430 kts 308°
2026-05-06 03:10 24.11316 -104.50206 37935 ft 430 kts 308°
2026-05-06 03:11 24.15449 -104.54931 37933 ft 429 kts 308°
2026-05-06 03:11 24.19570 -104.59644 37930 ft 429 kts 308°
2026-05-06 03:12 24.23692 -104.64370 37885 ft 428 kts 307°
2026-05-06 03:12 24.27784 -104.69058 37844 ft 428 kts 307°
2026-05-06 03:13 24.31927 -104.73796 37809 ft 427 kts 307°
2026-05-06 03:13 24.36028 -104.78509 37772 ft 427 kts 307°
2026-05-06 03:14 24.40127 -104.83226 37761 ft 427 kts 307°
2026-05-06 03:14 24.44200 -104.87911 37770 ft 426 kts 307°
2026-05-06 03:15 24.48292 -104.92622 37776 ft 426 kts 307°
2026-05-06 03:15 24.52407 -104.97356 37774 ft 425 kts 306°
2026-05-06 03:16 24.56455 -105.02023 37773 ft 424 kts 306°
2026-05-06 03:16 24.60518 -105.06720 37774 ft 423 kts 306°
2026-05-06 03:17 24.64572 -105.11415 37780 ft 423 kts 306°
2026-05-06 03:17 24.68628 -105.16114 37781 ft 424 kts 306°
2026-05-06 03:18 24.72699 -105.20819 37781 ft 425 kts 306°
2026-05-06 03:18 24.76762 -105.25526 37784 ft 424 kts 306°
2026-05-06 03:19 24.80820 -105.30239 37791 ft 424 kts 306°
2026-05-06 03:19 24.84882 -105.34959 37789 ft 424 kts 306°
2026-05-06 03:20 24.90960 -105.42038 37789 ft 424 kts 306°
2026-05-06 03:20 24.95017 -105.46752 37790 ft 424 kts 306°
2026-05-06 03:21 24.99064 -105.51474 37791 ft 423 kts 306°
2026-05-06 03:21 25.03103 -105.56196 37792 ft 423 kts 306°
2026-05-06 03:22 25.07144 -105.60914 37788 ft 423 kts 306°
2026-05-06 03:22 25.11177 -105.65626 37796 ft 422 kts 305°
2026-05-06 03:23 25.15212 -105.70347 37805 ft 423 kts 305°
2026-05-06 03:23 25.19242 -105.75075 37811 ft 423 kts 305°
2026-05-06 03:24 25.23275 -105.79805 37804 ft 422 kts 304°
2026-05-06 03:24 25.27298 -105.84532 37812 ft 423 kts 305°
2026-05-06 03:25 25.31323 -105.89272 37812 ft 423 kts 306°
2026-05-06 03:25 25.35310 -105.93961 37820 ft 423 kts 305°
2026-05-06 03:26 25.39384 -105.98750 37828 ft 423 kts 305°
2026-05-06 03:26 25.43409 -106.03488 37828 ft 422 kts 305°
2026-05-06 03:27 25.47418 -106.08236 37825 ft 422 kts 305°
2026-05-06 03:27 25.51427 -106.12987 37837 ft 422 kts 305°
2026-05-06 03:28 25.55416 -106.17713 37841 ft 423 kts 305°
2026-05-06 03:28 25.59421 -106.22472 37853 ft 422 kts 304°
2026-05-06 03:29 25.63428 -106.27223 37849 ft 422 kts 305°
2026-05-06 03:29 25.67450 -106.31964 37847 ft 422 kts 305°
2026-05-06 03:30 25.70804 -106.35942 37844 ft 422 kts 304°
2026-05-06 03:30 25.74803 -106.40711 37852 ft 422 kts 304°
2026-05-06 03:31 25.78792 -106.45463 37835 ft 421 kts 304°
2026-05-06 03:31 25.82766 -106.50194 37850 ft 421 kts 304°
2026-05-06 03:32 25.86761 -106.54949 37860 ft 421 kts 304°
2026-05-06 03:32 25.90743 -106.59706 37855 ft 420 kts 304°
2026-05-06 03:33 25.94721 -106.64465 37856 ft 420 kts 303°
2026-05-06 03:33 25.98703 -106.69227 37865 ft 420 kts 304°
2026-05-06 03:34 26.02681 -106.73994 37845 ft 420 kts 303°
2026-05-06 03:34 26.06658 -106.78762 37852 ft 420 kts 303°
2026-05-06 03:35 26.10634 -106.83538 37839 ft 420 kts 303°
2026-05-06 03:35 26.14604 -106.88321 37838 ft 420 kts 303°
2026-05-06 03:36 26.18578 -106.93102 37839 ft 421 kts 303°
2026-05-06 03:36 26.22533 -106.97852 37839 ft 420 kts 303°
2026-05-06 03:37 26.26493 -107.02638 37828 ft 420 kts 303°
2026-05-06 03:37 26.30461 -107.07420 37827 ft 421 kts 304°
2026-05-06 03:38 26.34425 -107.12213 37814 ft 420 kts 303°
2026-05-06 03:38 26.38370 -107.16990 37799 ft 419 kts 303°
2026-05-06 03:39 26.42324 -107.21779 37807 ft 420 kts 303°
2026-05-06 03:39 26.46259 -107.26542 37818 ft 420 kts 302°
2026-05-06 03:40 26.50219 -107.31345 37816 ft 419 kts 302°
2026-05-06 03:40 26.54151 -107.36130 37816 ft 418 kts 302°
2026-05-06 03:41 26.58084 -107.40916 37797 ft 417 kts 303°
2026-05-06 03:41 26.61974 -107.45647 37784 ft 413 kts 302°
2026-05-06 03:42 26.65868 -107.50407 37783 ft 414 kts 302°
2026-05-06 03:42 26.69768 -107.55165 37787 ft 416 kts 302°
2026-05-06 03:43 26.73677 -107.59930 37788 ft 416 kts 302°
2026-05-06 03:43 26.77578 -107.64700 37777 ft 416 kts 302°
2026-05-06 03:44 26.81485 -107.69498 37783 ft 417 kts 301°
2026-05-06 03:44 26.85392 -107.74295 37774 ft 416 kts 301°
2026-05-06 03:45 26.89296 -107.79087 37774 ft 417 kts 301°
2026-05-06 03:45 26.93212 -107.83886 37771 ft 417 kts 301°
2026-05-06 03:46 26.97121 -107.88682 37763 ft 416 kts 301°
2026-05-06 03:46 27.01017 -107.93485 37760 ft 416 kts 300°
2026-05-06 03:47 27.04907 -107.98280 37765 ft 416 kts 301°
2026-05-06 03:47 27.08784 -108.03057 37769 ft 416 kts 301°
2026-05-06 03:48 27.12678 -108.07867 37761 ft 416 kts 300°
2026-05-06 03:48 27.16572 -108.12678 37766 ft 416 kts 300°
2026-05-06 03:49 27.20457 -108.17488 37780 ft 416 kts 300°
2026-05-06 03:49 27.24334 -108.22303 37782 ft 415 kts 300°
2026-05-06 03:50 27.28210 -108.27113 37780 ft 415 kts 300°
2026-05-06 03:50 27.32080 -108.31917 37774 ft 414 kts 300°
2026-05-06 03:51 27.35936 -108.36722 37774 ft 414 kts 300°
2026-05-06 03:51 27.39791 -108.41524 37776 ft 413 kts 299°
2026-05-06 03:52 27.43641 -108.46329 37778 ft 413 kts 299°
2026-05-06 03:52 27.47459 -108.51089 37770 ft 412 kts 299°
2026-05-06 03:53 27.51301 -108.55879 37771 ft 412 kts 299°
2026-05-06 03:53 27.55129 -108.60666 37767 ft 411 kts 299°
2026-05-06 03:54 27.58957 -108.65463 37759 ft 410 kts 299°
2026-05-06 03:54 27.62760 -108.70227 37761 ft 408 kts 298°
2026-05-06 03:55 27.66565 -108.75004 37745 ft 410 kts 298°
2026-05-06 03:55 27.70377 -108.79793 37714 ft 411 kts 298°
2026-05-06 03:56 27.74204 -108.84605 37744 ft 412 kts 298°
2026-05-06 03:56 27.78024 -108.89421 37744 ft 412 kts 298°
2026-05-06 03:57 27.81845 -108.94241 37747 ft 412 kts 298°
2026-05-06 03:57 27.85663 -108.99046 37761 ft 411 kts 298°
2026-05-06 03:58 27.89446 -109.03819 37760 ft 410 kts 298°
2026-05-06 03:58 27.93241 -109.08615 37752 ft 409 kts 298°
2026-05-06 03:59 27.97023 -109.13409 37760 ft 408 kts 298°
2026-05-06 03:59 28.00798 -109.18199 37754 ft 407 kts 297°
2026-05-06 04:00 28.04565 -109.22989 37750 ft 407 kts 298°
2026-05-06 04:00 28.08329 -109.27782 37757 ft 407 kts 297°
2026-05-06 04:01 28.12095 -109.32567 37749 ft 407 kts 297°
2026-05-06 04:01 28.15851 -109.37345 37747 ft 405 kts 298°
2026-05-06 04:02 28.19604 -109.42124 37744 ft 406 kts 297°
2026-05-06 04:02 28.23352 -109.46900 37741 ft 405 kts 297°
2026-05-06 04:03 28.27097 -109.51682 37740 ft 405 kts 298°
2026-05-06 04:03 28.30830 -109.56455 37730 ft 404 kts 298°
2026-05-06 04:04 28.34543 -109.61218 37730 ft 402 kts 297°
2026-05-06 04:04 28.38255 -109.65982 37731 ft 402 kts 297°
2026-05-06 04:05 28.41805 -109.70547 37729 ft 402 kts 297°
2026-05-06 04:05 28.45441 -109.75223 37724 ft 401 kts 297°
2026-05-06 04:06 28.49134 -109.79971 37731 ft 400 kts 297°
2026-05-06 04:06 28.52822 -109.84718 37723 ft 400 kts 297°
2026-05-06 04:07 28.56504 -109.89461 37729 ft 400 kts 297°
2026-05-06 04:07 28.60176 -109.94203 37739 ft 399 kts 297°
2026-05-06 04:08 28.63839 -109.98939 37744 ft 398 kts 297°
2026-05-06 04:08 28.67494 -110.03674 37726 ft 398 kts 297°
2026-05-06 04:09 28.71145 -110.08406 37738 ft 397 kts 297°
2026-05-06 04:09 28.74789 -110.13128 37735 ft 396 kts 297°
2026-05-06 04:10 28.78424 -110.17848 37741 ft 396 kts 297°
2026-05-06 04:10 28.82055 -110.22562 37741 ft 396 kts 297°
2026-05-06 04:11 28.85679 -110.27287 37740 ft 395 kts 297°
2026-05-06 04:11 28.89278 -110.31977 37736 ft 396 kts 297°
2026-05-06 04:12 28.92904 -110.36706 37736 ft 396 kts 297°
2026-05-06 04:12 28.96531 -110.41442 37727 ft 396 kts 297°
2026-05-06 04:13 29.00156 -110.46184 37732 ft 396 kts 296°
2026-05-06 04:13 29.03777 -110.50933 37723 ft 397 kts 297°
2026-05-06 04:14 29.07403 -110.55689 37720 ft 397 kts 296°
2026-05-06 04:14 29.11033 -110.60448 37719 ft 397 kts 297°
2026-05-06 04:15 29.14662 -110.65212 37723 ft 397 kts 297°
2026-05-06 04:15 29.18298 -110.69990 37717 ft 398 kts 297°
2026-05-06 04:16 29.21930 -110.74767 37721 ft 398 kts 297°
2026-05-06 04:16 29.25560 -110.79554 37720 ft 398 kts 296°
2026-05-06 04:17 29.29186 -110.84337 37733 ft 398 kts 296°
2026-05-06 04:17 29.32197 -110.88322 37718 ft 398 kts 296°
2026-05-06 04:18 29.36407 -110.93892 37732 ft 398 kts 296°
2026-05-06 04:18 29.40031 -110.98687 37715 ft 398 kts 296°
2026-05-06 04:19 29.43064 -111.02708 37711 ft 398 kts 296°
2026-05-06 04:19 29.46686 -111.07512 37709 ft 398 kts 296°
2026-05-06 04:20 29.50306 -111.12316 37710 ft 398 kts 296°
2026-05-06 04:20 29.53922 -111.17130 37707 ft 398 kts 296°
2026-05-06 04:21 29.57534 -111.21944 37710 ft 398 kts 296°
2026-05-06 04:21 29.61124 -111.26735 37709 ft 398 kts 296°
2026-05-06 04:22 29.64735 -111.31560 37714 ft 398 kts 296°
2026-05-06 04:23 29.70158 -111.38813 37710 ft 399 kts 296°
2026-05-06 04:23 29.73766 -111.43655 37712 ft 399 kts 296°
2026-05-06 04:24 29.77380 -111.48500 37706 ft 400 kts 296°
2026-05-06 04:24 29.81000 -111.53355 37714 ft 400 kts 296°
2026-05-06 04:25 29.84624 -111.58218 37716 ft 399 kts 296°
2026-05-06 04:25 29.88232 -111.63079 37722 ft 399 kts 296°
2026-05-06 04:26 29.91841 -111.67945 37720 ft 399 kts 296°
2026-05-06 04:26 29.95453 -111.72814 37726 ft 399 kts 296°
2026-05-06 04:27 29.99054 -111.77681 37720 ft 399 kts 296°
2026-05-06 04:27 30.02656 -111.82548 37733 ft 398 kts 296°
2026-05-06 04:28 30.06231 -111.87371 37700 ft 394 kts 295°
2026-05-06 04:28 30.09788 -111.92200 37702 ft 395 kts 295°
2026-05-06 04:29 30.13346 -111.97040 37715 ft 395 kts 295°
2026-05-06 04:29 30.16909 -112.01891 37717 ft 396 kts 295°
2026-05-06 04:30 30.20475 -112.06733 37727 ft 396 kts 295°
2026-05-06 04:30 30.24036 -112.11583 37730 ft 396 kts 295°
2026-05-06 04:31 30.27572 -112.16402 37721 ft 395 kts 295°
2026-05-06 04:31 30.31122 -112.21256 37720 ft 395 kts 295°
2026-05-06 04:32 30.34663 -112.26104 37723 ft 394 kts 295°
2026-05-06 04:32 30.38217 -112.30964 37722 ft 394 kts 295°
2026-05-06 04:33 30.41752 -112.35813 37727 ft 393 kts 295°
2026-05-06 04:33 30.45276 -112.40665 37728 ft 393 kts 295°
2026-05-06 04:34 30.48810 -112.45511 37726 ft 393 kts 295°
2026-05-06 04:34 30.52340 -112.50365 37728 ft 393 kts 295°
2026-05-06 04:35 30.55839 -112.55188 37734 ft 393 kts 295°
2026-05-06 04:35 30.59354 -112.60044 37731 ft 393 kts 296°
2026-05-06 04:36 30.62881 -112.64912 37730 ft 393 kts 296°
2026-05-06 04:36 30.66398 -112.69777 37730 ft 393 kts 296°
2026-05-06 04:37 30.69914 -112.74644 37730 ft 393 kts 296°
2026-05-06 04:37 30.73428 -112.79514 37732 ft 393 kts 296°
2026-05-06 04:38 30.76940 -112.84388 37734 ft 393 kts 296°
2026-05-06 04:38 30.80457 -112.89267 37736 ft 394 kts 296°
2026-05-06 04:39 30.83971 -112.94150 37734 ft 393 kts 296°
2026-05-06 04:39 30.87488 -112.99044 37733 ft 394 kts 296°
2026-05-06 04:40 30.90971 -113.03901 37730 ft 393 kts 296°
2026-05-06 04:40 30.94470 -113.08796 37730 ft 393 kts 296°
2026-05-06 04:41 30.97973 -113.13697 37727 ft 393 kts 296°
2026-05-06 04:41 31.01472 -113.18596 37733 ft 393 kts 296°
2026-05-06 04:42 31.04971 -113.23505 37733 ft 393 kts 296°
2026-05-06 04:42 31.08470 -113.28411 37737 ft 393 kts 297°
2026-05-06 04:43 31.11963 -113.33319 37731 ft 393 kts 297°
2026-05-06 04:43 31.15454 -113.38237 37732 ft 393 kts 297°
2026-05-06 04:44 31.18942 -113.43157 37727 ft 393 kts 297°
2026-05-06 04:44 31.22428 -113.48081 37727 ft 394 kts 297°
2026-05-06 04:45 31.25923 -113.53014 37726 ft 394 kts 297°
2026-05-06 04:45 31.29417 -113.57954 37727 ft 394 kts 297°
2026-05-06 04:46 31.32886 -113.62864 37721 ft 394 kts 297°
2026-05-06 04:46 31.36404 -113.67849 37720 ft 395 kts 297°
2026-05-06 04:47 31.39897 -113.72811 37402 ft 395 kts 292°
2026-05-06 04:47 31.41640 -113.75289 37559 ft 395 kts 294°
2026-05-06 04:47 31.43386 -113.77774 37684 ft 397 kts 294°
2026-05-06 04:48 31.46897 -113.82773 37707 ft 397 kts 295°
2026-05-06 04:48 31.50385 -113.87743 37697 ft 397 kts 294°
2026-05-06 04:49 31.53895 -113.92747 37687 ft 397 kts 294°
2026-05-06 04:49 31.57394 -113.97757 37687 ft 397 kts 294°
2026-05-06 04:50 31.60891 -114.02769 37681 ft 397 kts 295°
2026-05-06 04:50 31.64421 -114.07780 37666 ft 399 kts 295°
2026-05-06 04:51 31.67997 -114.12769 37662 ft 400 kts 295°
2026-05-06 04:51 31.71569 -114.17769 37654 ft 400 kts 295°
2026-05-06 04:52 31.75132 -114.22793 37647 ft 400 kts 295°
2026-05-06 04:52 31.78694 -114.27814 37650 ft 401 kts 295°
2026-05-06 04:53 31.82261 -114.32853 37649 ft 401 kts 295°
2026-05-06 04:53 31.85826 -114.37904 37657 ft 401 kts 295°
2026-05-06 04:54 31.89372 -114.42933 37654 ft 402 kts 296°
2026-05-06 04:54 31.92944 -114.47995 37664 ft 402 kts 296°
2026-05-06 04:55 31.96513 -114.53066 37665 ft 402 kts 296°
2026-05-06 04:55 32.00086 -114.58150 37674 ft 403 kts 296°
2026-05-06 04:56 32.03665 -114.63238 37676 ft 403 kts 296°
2026-05-06 04:56 32.07244 -114.68335 37686 ft 404 kts 296°
2026-05-06 04:57 32.10819 -114.73446 37685 ft 404 kts 296°
2026-05-06 04:57 32.14395 -114.78564 37691 ft 405 kts 296°
2026-05-06 04:58 32.17980 -114.83695 37687 ft 405 kts 296°
2026-05-06 04:58 32.21562 -114.88839 37694 ft 406 kts 296°
2026-05-06 04:59 32.25133 -114.93961 37691 ft 407 kts 296°
2026-05-06 04:59 32.28726 -114.99124 37701 ft 407 kts 296°
2026-05-06 05:00 32.32323 -115.04303 37702 ft 408 kts 296°
2026-05-06 05:00 32.35553 -115.09679 37712 ft 397 kts 289°
2026-05-06 05:01 32.38514 -115.15194 37721 ft 397 kts 289°
2026-05-06 05:01 32.41474 -115.20713 37726 ft 397 kts 289°
2026-05-06 05:02 32.44439 -115.26238 37728 ft 397 kts 289°
2026-05-06 05:02 32.47400 -115.31767 37735 ft 397 kts 289°
2026-05-06 05:03 32.50350 -115.37292 37736 ft 397 kts 289°
2026-05-06 05:03 32.53296 -115.42823 37741 ft 397 kts 289°
2026-05-06 05:04 32.56247 -115.48361 37725 ft 397 kts 289°
2026-05-06 05:04 32.59195 -115.53898 37743 ft 397 kts 289°
2026-05-06 05:05 32.62137 -115.59440 37763 ft 397 kts 289°